Previsão horária em Pl'os

Hoje, 3 Março, Quarta-feira

Tempo Temperatura Precipitação Vento Pressão Humidade
00:00 -10°C° 0 mm 5 m/s 741 mmHg 89%
01:00 -10°C° 0 mm 5 m/s 741 mmHg 90%
02:00 -11°C° 0 mm 5 m/s 742 mmHg 91%
03:00 -10°C° 0 mm 4 m/s 743 mmHg 93%
04:00 -10°C° 0 mm 4 m/s 743 mmHg 93%
05:00 -12°C° 0 mm 5 m/s 743 mmHg 93%
06:00 -12°C° 0 mm 5 m/s 743 mmHg 93%
07:00 -12°C° 0 mm 5 m/s 743 mmHg 93%
08:00 -11°C° 0 mm 5 m/s 744 mmHg 92%
09:00 -11°C° 0 mm 5 m/s 744 mmHg 91%
10:00 -10°C° 0 mm 5 m/s 744 mmHg 90%
11:00 -8°C° 0 mm 5 m/s 744 mmHg 89%
12:00 -8°C° 0 mm 5 m/s 743 mmHg 87%
13:00 -7°C° 0 mm 5 m/s 743 mmHg 88%
14:00 -6°C° 0 mm 5 m/s 743 mmHg 89%
15:00 -6°C° 0 mm 5 m/s 743 mmHg 90%
16:00 -5°C° 0.1 mm 5 m/s 742 mmHg 91%
17:00 -5°C° 0.1 mm 5 m/s 741 mmHg 93%
18:00 -5°C° 0.1 mm 5 m/s 741 mmHg 94%
19:00 -5°C° 0.1 mm 5 m/s 740 mmHg 94%
20:00 -5°C° 0.1 mm 5 m/s 740 mmHg 93%
21:00 -5°C° 0.1 mm 5 m/s 740 mmHg 93%
22:00 -5°C° 0.1 mm 5 m/s 739 mmHg 93%
23:00 -5°C° 0.1 mm 5 m/s 738 mmHg 94%

Amanhã, 4 Março, Quinta-feira

Tempo Temperatura Precipitação Vento Pressão Humidade
00:00 -5°C° 0.1 mm 5 m/s 737 mmHg 94%
01:00 -5°C° 0.1 mm 6 m/s 736 mmHg 94%
02:00 -5°C° 0.1 mm 6 m/s 736 mmHg 93%
03:00 -5°C° 0.1 mm 6 m/s 735 mmHg 93%
04:00 -5°C° 0.2 mm 5 m/s 734 mmHg 94%
05:00 -4°C° 0.2 mm 5 m/s 733 mmHg 94%
06:00 -3°C° 0.2 mm 4 m/s 732 mmHg 95%
07:00 -5°C° 0.1 mm 5 m/s 732 mmHg 90%
08:00 -5°C° 0.1 mm 6 m/s 732 mmHg 86%
09:00 -7°C° 0.1 mm 7 m/s 732 mmHg 81%
10:00 -7°C° 0 mm 7 m/s 732 mmHg 83%
11:00 -7°C° 0 mm 7 m/s 732 mmHg 84%
12:00 -7°C° 0 mm 7 m/s 733 mmHg 86%
13:00 -7°C° 0.1 mm 7 m/s 733 mmHg 86%
14:00 -7°C° 0.1 mm 7 m/s 734 mmHg 86%
15:00 -6°C° 0.1 mm 6 m/s 734 mmHg 86%
16:00 -6°C° 0.2 mm 5 m/s 735 mmHg 88%
17:00 -7°C° 0.2 mm 4 m/s 735 mmHg 90%
18:00 -7°C° 0.2 mm 3 m/s 735 mmHg 93%
19:00 -8°C° 0.1 mm 3 m/s 736 mmHg 93%
20:00 -9°C° 0.1 mm 3 m/s 736 mmHg 93%
21:00 -8°C° 0.1 mm 2 m/s 737 mmHg 93%
22:00 -10°C° 0 mm 2 m/s 737 mmHg 93%
23:00 -12°C° 0 mm 2 m/s 737 mmHg 93%

Depois de amanhã, 5 Março, Sexta-feira

Tempo Temperatura Precipitação Vento Pressão Humidade
00:00 -14°C° 0 mm 2 m/s 737 mmHg 94%
01:00 -13°C° 0 mm 1 m/s 738 mmHg 94%
02:00 -13°C° 0 mm 1 m/s 738 mmHg 94%
03:00 -14°C° 0 mm 1 m/s 738 mmHg 94%
04:00 -15°C° 0 mm 1 m/s 739 mmHg 94%
05:00 -15°C° 0 mm 1 m/s 739 mmHg 94%
06:00 -15°C° 0 mm 1 m/s 739 mmHg 94%
07:00 -14°C° 0 mm 1 m/s 740 mmHg 94%
08:00 -13°C° 0 mm 1 m/s 740 mmHg 94%
09:00 -12°C° 0 mm 1 m/s 740 mmHg 94%
10:00 -13°C° 0 mm 2 m/s 740 mmHg 92%
11:00 -10°C° 0 mm 2 m/s 740 mmHg 90%
12:00 -8°C° 0 mm 2 m/s 741 mmHg 88%
13:00 -8°C° 0 mm 2 m/s 741 mmHg 88%
14:00 -7°C° 0 mm 2 m/s 741 mmHg 88%
15:00 -7°C° 0 mm 2 m/s 742 mmHg 87%
16:00 -8°C° 0 mm 2 m/s 742 mmHg 90%
17:00 -8°C° 0 mm 2 m/s 742 mmHg 92%
18:00 -8°C° 0 mm 1 m/s 742 mmHg 95%
19:00 -8°C° 0.1 mm 1 m/s 742 mmHg 95%
20:00 -9°C° 0.1 mm 1 m/s 743 mmHg 95%
21:00 -9°C° 0.1 mm 1 m/s 743 mmHg 96%
22:00 -12°C° 0 mm 2 m/s 744 mmHg 96%
23:00 -13°C° 0 mm 2 m/s 744 mmHg 96%

6 Março, Sábado

Tempo Temperatura Precipitação Vento Pressão Humidade
00:00 -14°C° 0 mm 2 m/s 744 mmHg 96%
01:00 -15°C° 0 mm 2 m/s 744 mmHg 96%
02:00 -16°C° 0 mm 2 m/s 745 mmHg 96%
03:00 -16°C° 0 mm 2 m/s 745 mmHg 96%
04:00 -17°C° 0 mm 2 m/s 745 mmHg 97%
05:00 -18°C° 0 mm 2 m/s 745 mmHg 97%
06:00 -19°C° 0 mm 2 m/s 746 mmHg 97%
07:00 -19°C° 0 mm 2 m/s 746 mmHg 96%
08:00 -18°C° 0 mm 2 m/s 746 mmHg 94%
09:00 -19°C° 0 mm 3 m/s 746 mmHg 93%
10:00 -18°C° 0 mm 3 m/s 746 mmHg 91%
11:00 -16°C° 0 mm 3 m/s 747 mmHg 88%
12:00 -15°C° 0 mm 3 m/s 747 mmHg 86%
13:00 -14°C° 0 mm 3 m/s 747 mmHg 86%
14:00 -14°C° 0 mm 3 m/s 746 mmHg 86%
15:00 -14°C° 0 mm 4 m/s 746 mmHg 86%
16:00 -14°C° 0 mm 3 m/s 746 mmHg 89%
17:00 -15°C° 0 mm 3 m/s 746 mmHg 92%
18:00 -14°C° 0 mm 2 m/s 746 mmHg 94%
19:00 -15°C° 0 mm 2 m/s 746 mmHg 95%
20:00 -16°C° 0 mm 3 m/s 745 mmHg 95%
21:00 -16°C° 0 mm 3 m/s 745 mmHg 95%
22:00 -17°C° 0 mm 3 m/s 745 mmHg 96%
23:00 -18°C° 0 mm 3 m/s 744 mmHg 96%

7 Março, Domingo

Tempo Temperatura Precipitação Vento Pressão Humidade
00:00 -18°C° 0 mm 3 m/s 744 mmHg 96%
01:00 -18°C° 0 mm 3 m/s 743 mmHg 95%
02:00 -19°C° 0 mm 4 m/s 742 mmHg 94%
03:00 -18°C° 0 mm 4 m/s 741 mmHg 93%
04:00 -18°C° 0.1 mm 5 m/s 740 mmHg 93%
05:00 -17°C° 0.1 mm 6 m/s 739 mmHg 93%
06:00 -16°C° 0.1 mm 6 m/s 738 mmHg 93%
07:00 -15°C° 0.2 mm 7 m/s 737 mmHg 93%
08:00 -14°C° 0.2 mm 7 m/s 735 mmHg 92%
09:00 -13°C° 0.2 mm 7 m/s 734 mmHg 92%
10:00 -12°C° 0.5 mm 8 m/s 733 mmHg 92%
11:00 -11°C° 0.5 mm 8 m/s 732 mmHg 92%
12:00 -10°C° 0.5 mm 8 m/s 731 mmHg 93%
13:00 -9°C° 0.7 mm 7 m/s 730 mmHg 91%
14:00 -9°C° 0.7 mm 7 m/s 730 mmHg 89%
15:00 -9°C° 0.7 mm 7 m/s 730 mmHg 88%
16:00 -10°C° 0.1 mm 5 m/s 730 mmHg 85%
17:00 -10°C° 0.1 mm 3 m/s 729 mmHg 83%
18:00 -9°C° 0.1 mm 1 m/s 729 mmHg 80%
19:00 -10°C° 0 mm 1 m/s 730 mmHg 81%
20:00 -11°C° 0 mm 1 m/s 730 mmHg 83%
21:00 -14°C° 0 mm 2 m/s 730 mmHg 84%
22:00 -14°C° 0 mm 2 m/s 730 mmHg 87%
23:00 -14°C° 0 mm 2 m/s 730 mmHg 89%

8 Março, Segunda-feira

Tempo Temperatura Precipitação Vento Pressão Humidade
00:00 -15°C° 0 mm 2 m/s 730 mmHg 92%
01:00 -15°C° 0.1 mm 3 m/s 730 mmHg 93%
02:00 -14°C° 0.1 mm 3 m/s 731 mmHg 93%
03:00 -14°C° 0.1 mm 3 m/s 731 mmHg 94%
04:00 -16°C° 0.1 mm 4 m/s 731 mmHg 94%
05:00 -16°C° 0.1 mm 4 m/s 731 mmHg 94%
06:00 -17°C° 0.1 mm 4 m/s 732 mmHg 94%
07:00 -17°C° 0.1 mm 4 m/s 732 mmHg 93%
08:00 -16°C° 0.1 mm 4 m/s 733 mmHg 92%
09:00 -16°C° 0.1 mm 4 m/s 733 mmHg 92%
10:00 -15°C° 0.1 mm 5 m/s 734 mmHg 90%
11:00 -14°C° 0.1 mm 5 m/s 735 mmHg 87%
12:00 -13°C° 0.1 mm 5 m/s 736 mmHg 85%
13:00 -13°C° 0.1 mm 5 m/s 736 mmHg 85%
14:00 -13°C° 0.1 mm 5 m/s 737 mmHg 84%
15:00 -13°C° 0.1 mm 5 m/s 738 mmHg 84%
16:00 -14°C° 0.1 mm 4 m/s 739 mmHg 87%
17:00 -14°C° 0.1 mm 4 m/s 739 mmHg 89%
18:00 -15°C° 0.1 mm 4 m/s 740 mmHg 92%
19:00 -16°C° 0 mm 4 m/s 741 mmHg 92%
20:00 -18°C° 0 mm 4 m/s 741 mmHg 93%
21:00 -19°C° 0 mm 4 m/s 742 mmHg 93%
22:00 -19°C° 0 mm 3 m/s 743 mmHg 94%
23:00 -22°C° 0 mm 3 m/s 743 mmHg 95%
Mostrar mais

Necessitamos do seu Consentimento

A Meteoprog e os seus Fornecedores de Serviços podem armazenar e aceder a dados pessoais como cookies, identificadores do dispositivo ou outras tecnologias semelhantes existentes no seu dispositivo e processar estes dados para personalizar conteúdos e anúncios, assim como funcionalidades nas redes sociais e análise de tráfego.

  • Armazenar e/ou aceder a informações no seu dispositivo

    Os cookies, identificadores do dispositivo ou outras informações podem ser armazenados ou acedidos no seu dispositivo, para os fins acima indicados.

  • Anúncios e conteúdos personalizados, medição de anúncios e conteúdos, dados sobre o público-alvo e desenvolvimento de produtos

    Os anúncios e os conteúdos podem ser personalizados com base num perfil. Podem ser adicionados dados adicionais para uma maior personalização dos anúncios e dos conteúdos. A eficácia dos anúncios e dos conteúdos pode ser medida. Podem ser obtidas informações sobre o público que visualizou os anúncios e os conteúdos. Estes dados podem ser usados para desenvolver ou melhorar sistemas, softwares ou a experiência do utilizador.

Ao clicar em "Eu concordo”, permitirá o uso de cookies, identificadores do dispositivo e web beacons mencionados ou outras tecnologias semelhantes. As configurações do navegador do seu dispositivo podem ser alteradas.

Para certos fins, podem ser invocados interesses legítimos ao invés de consentimento. Pode ler mais informação sobre este assunto na nossa Política de Privacidade e Cookies.